SCP
-0 -0 -0 -0 -0 -0 -0 -0 -0 -0 -0 -0 -0 -0 -0 -0 -0 -0 -0 -0 -0 -0 -0 -0 -0 -0 -0 0 -0 -0 0 0 -0 -0 0 -0 -0 -0 -0 -0 0 0 0
-0 -0 -0 -0 -0 -0 -0 -0 -0 -0 -0 -0 -0 -0 -0 -0 -0 -0 -0 -0 0 -0 -0 -0 -0 -0 -0 -0 0 -0 -0 -0 -0 -0 0 0 0 0 -0 -0 -0 -0 -0
-0 -0 -0 -0 -0 -0 -0 -0 -0 -0 -0 -0 -0 -0 -0 -0 -0 -0 -0 0 0 -0 -0 -0 -0 0 0 0 0 0 0 0 -0 -0 -0 -0 0 -0 -0 -0 -0 -0 -0
-0 -0 -0 -0 -0 -0 -0 -0 -0 -0 -0 -0 -0 -0 -0 -0 -0 -0 0 0 -0 0 0 0 0 0 0 0 0 -0 0 0 -0 0 -0 0 0 0 0 0 0 -0 0
-0 -0 -0 -0 -0 -0 -0 -0 -0 -0 -0 -0 -0 -0 -0 -0 -0 -0 0 0 0 0 0 0 0 0 0 0 0 0 0 0 0 0 0 0 0 0 0 0 0 0 -0
-0 -0 -0 -0 -0 -0 -0 -0 -0 -0 -0 -0 -0 -0 -0 -0 -0 0 0 0 0 0 0 0 0 0 0 0 0 0 0 0 0 0 0 0 0 0 0 -0 0 0 0
-0 -0 -0 -0 -0 -0 -0 -0 -0 -0 -0 -0 -0 -0 -0 -0 -0 0 0 0 0 0 0 0 0 0 0 0 0 0 0 0 0 0 0 -0 0 0 0 0 0 0 0
-0 -0 -0 -0 -0 -0 -0 -0 -0 -0 -0 -0 -0 -0 -0 -0 0 0 0 0 0 0 0 0 0 0 0 0 0 0 0 0 0 0 0 0 0 0 0 0 0 0 0
-0 -0 -0 -0 -0 -0 -0 -0 -0 0 0 0 0 0 0 0 0 0 -0 -0 -0 -0 -0 -0 0 0 0 0 0 0 0 0 -0 0 0 0 -0 0 0 0 0 0 0
-0 -0 -0 -0 -0 -0 -0 -0 -0 0 0 0 0 0 0 0 0 -0 -0 -0 -0 -0 -0 -0 -0 -0 0 0 0 0 0 -0 -0 0 0 0 0 0 0 0 0 0 0
-0 -0 -0 -0 -0 0 -0 -0 0 0 0 0 0 0 0 0 0 0 0 0 -0 -0 -0 -0 -0 -0 -0 0 0 0 0 0 0 0 0 -0 -0 -0 0 0 0 0 0
-1 -0 -0 -0 -0 0 0 0 0 0 0 0 0 0 0 0 0 -0 0 0 -0 -0 -0 -0 -0 0 0 0 0 0 0 0 0 0 0 -0 -0 -0 0 0 0 0 0
-0 -0 -0 -0 -0 0 0 0 0 0 0 0 0 0 0 0 0 0 0 0 0 0 0 0 0 0 0 -0 0 0 -0 0 0 0 0 0 0 0 0 0 0 0 0
-0 -0 -0 -0 -0 -0 0 0 0 0 0 0 0 0 0 0 0 0 0 0 0 0 0 0 0 0 0 0 0 -0 0 0 0 0 0 0 0 0 -0 -0 0 0 0
0 0 0 0 0 0 0 0 0 0 0 0 0 0 0 0 0 0 0 0 0 0 0 0 0 0 0 0 0 0 0 0 0 0 0 0 0 0 -0 -0 0 0 0
0 0 0 0 0 0 0 0 0 0 0 0 0 0 0 0 0 0 0 0 0 0 0 0 0 0 0 0 0 0 0 0 0 0 0 0 0 0 0 0 0 -0 0
0 0 0 0 0 0 0 0 0 0 0 0 0 0 0 0 0 0 0 0 0 0 0 0 0 0 0 0 0 0 0 0 0 0 0 0 0 0 0 0 0 0 0
0 0 0 0 0 0 0 0 0 0 0 0 0 0 0 0 0 0 0 0 0 0 0 0 0 0 0 0 0 0 0 0 0 0 0 0 0 0 0 0 0 0 0
0 0 0 0 0 1 1 1 1 1 1 1 0 0 0 0 0 0 0 0 0 0 0 0 0 1 0 0 0 0 0 0 0 0 0 0 0 0 0 0 0 0 0
1 1 0 0 1 1 1 1 1 1 1 1 1 0 0 0 0 0 0 0 0 0 0 0 1 0 0 0 0 0 0 0 0 0 0 0 0 0 0 0 1 0 0
1 0 1 0 0 0 0 0 1 1 1 1 1 1 1 1 1 0 0 0 0 1 1 1 1 0 0 0 0 0 0 0 0 0 0 0 0 0 0 1 1 0 0
0 1 1 1 -0 -0 0 0 1 2 3 6 6 5 4 3 3 2 1 1 1 1 1 1 1 1 0 0 1 0 0 0 1 0 0 0 0 0 0 0 0 0 0
0 0 1 1 1 1 1 1 1 5 4 3 3 2 1 1 1 3 1 1 1 2 1 1 1 1 1 1 1 0 0 0 0 0 0 0 0 0 0 0 0 0 0
0 0 0 0 0 1 2 2 3 2 2 2 1 2 1 1 1 2 2 1 0 0 0 1 1 1 1 1 1 0 0 0 0 -0 0 0 0 0 0 0 1 1 0
0 0 0 0 0 0 0 1 1 1 1 1 1 1 1 0 0 0 0 1 0 1 0 0 -0 -0 0 -0 -0 -0 0 0 0 0 -0 1 0 0 0 0 0 0 1
0 0 0 0 -0 -0 0 0 0 0 0 0 0 0 0 0 0 0 0 0 1 1 0 -0 -0 -0 -0 -0 -0 0 0 0 0 0 0 0 0 1 0 0 0 0 0
Wind_Speed_500mb
33 35 33 31 33 35 34 32 27 21 20 20 20 22 26 29 31 33 36 37 38 39 40 40 41 43 44 44 42 41 37 35 36 37 39 38 38 38 38 43 29 22 28
42 40 37 34 35 36 36 32 27 24 23 22 21 23 26 29 32 35 37 38 38 38 38 39 40 43 43 43 42 40 39 39 38 38 45 41 41 41 38 36 29 32 33
44 43 40 37 37 36 36 33 30 27 26 24 22 23 26 28 30 33 35 37 38 38 37 36 37 38 38 39 39 39 38 37 37 44 43 19 29 39 38 38 36 37 36
45 44 42 38 36 35 33 31 29 27 26 25 22 23 24 26 27 29 30 32 34 35 35 34 34 34 34 34 35 35 35 35 36 42 21 19 22 34 35 36 36 35 37
42 42 41 38 35 33 31 30 28 27 26 24 22 22 22 23 24 26 26 27 30 30 30 29 29 29 29 31 31 32 31 31 34 31 19 17 16 28 31 32 31 33 30
40 38 38 35 33 31 30 28 28 26 25 23 22 20 20 21 21 22 22 23 24 25 24 23 22 21 23 23 23 24 24 23 31 14 16 26 16 25 27 28 25 26 28
40 36 38 35 32 30 28 27 26 25 24 23 22 20 19 19 19 19 20 19 19 19 17 16 16 16 14 12 11 12 14 17 20 9 13 15 18 23 25 24 22 22 24
37 36 40 38 33 29 27 24 23 22 21 21 20 19 18 17 16 15 16 15 14 14 12 11 10 9 8 7 7 8 8 8 12 5 5 6 17 20 21 21 19 18 19
36 35 36 40 36 31 27 25 23 21 21 20 20 19 17 17 15 15 14 14 13 12 10 8 6 4 2 1 4 4 5 6 9 4 4 4 16 14 16 15 16 15 13
35 34 32 35 36 33 30 28 24 22 22 21 21 20 19 18 17 15 14 13 13 13 11 8 5 3 3 6 8 6 7 5 2 7 9 7 16 11 11 12 11 11 10
37 36 33 34 34 32 29 30 28 27 24 23 23 22 21 17 18 16 17 17 14 12 11 9 8 6 7 6 10 11 11 8 11 11 10 19 16 10 10 10 10 10 10
39 40 38 36 36 33 30 29 31 29 28 27 26 24 23 20 20 20 21 18 15 12 9 8 6 5 4 5 17 15 8 12 13 14 15 23 16 13 12 11 10 9 9
37 40 40 38 37 33 28 25 24 24 24 27 28 26 24 21 21 23 17 17 16 11 9 12 6 4 7 6 5 11 12 11 14 16 17 21 16 15 13 12 10 8 9
35 37 40 40 43 40 31 30 28 27 26 25 29 30 29 26 23 20 19 18 18 16 15 12 9 14 9 9 11 12 12 15 16 17 21 25 21 18 17 14 11 11 10
28 29 32 35 36 40 44 27 26 25 25 22 23 28 25 23 23 22 22 20 20 19 18 15 16 16 16 17 16 17 17 19 21 22 21 28 23 21 18 17 15 15 13
21 23 26 33 34 32 32 31 24 25 24 24 23 23 30 25 24 21 22 20 23 23 22 21 21 22 21 22 24 26 26 22 23 26 24 26 22 21 21 21 18 18 16
19 22 25 29 30 34 32 31 29 25 23 24 24 26 30 32 31 29 24 24 25 26 28 29 27 26 29 26 30 29 28 28 24 26 24 23 24 23 26 25 22 23 21
17 19 26 23 26 33 32 28 24 25 25 25 24 24 32 33 34 34 30 29 30 35 33 30 28 26 29 29 30 30 29 29 27 26 22 25 23 23 28 25 25 24 22
13 18 22 28 28 29 35 29 26 26 25 25 25 27 33 33 31 33 31 31 39 37 33 33 31 29 28 27 29 29 29 28 28 26 26 25 26 28 23 27 27 31 28
6 17 21 20 31 34 33 36 28 23 23 23 24 23 27 30 33 35 34 36 37 32 34 34 35 30 30 27 27 27 29 31 30 28 26 24 26 29 27 25 31 29 32
5 15 19 14 23 23 24 21 21 20 19 18 18 21 22 19 26 33 33 31 39 41 41 38 39 35 31 28 28 28 27 30 33 29 25 22 23 24 24 28 25 23 22
6 8 12 18 19 14 18 21 22 20 19 30 33 31 30 32 31 26 30 32 40 41 43 36 34 33 29 25 30 27 29 22 28 20 20 18 20 24 21 19 19 24 21
15 11 6 6 6 10 14 15 19 28 35 25 26 31 30 20 24 22 36 34 44 34 41 35 26 26 31 27 32 28 26 29 15 19 17 16 16 13 14 18 18 21 19
24 19 12 6 4 9 13 14 19 18 17 17 24 24 19 16 6 12 32 45 55 52 75 48 38 43 44 44 30 24 32 33 31 32 15 16 16 14 19 18 20 18 18
25 30 28 25 22 16 6 6 10 16 19 20 17 14 24 31 39 48 61 40 49 62 60 80 75 71 52 43 40 37 36 31 31 33 35 20 12 11 17 17 20 18 19
25 26 27 29 32 28 20 14 8 6 3 6 13 18 26 38 42 45 74 75 51 63 68 77 70 71 73 58 46 38 40 37 30 29 32 31 28 20 20 26 29 24 21
Wind_Direction_500mb
161 167 162 159 156 156 159 159 155 148 137 123 112 106 94 88 90 96 100 101 103 102 98 96 94 94 93 90 90 89 87 83 81 81 76 74 72 71 70 78 61 70 67
161 169 164 162 158 160 163 163 158 152 141 133 123 115 102 94 95 98 100 101 101 101 101 99 97 94 91 88 88 86 85 82 80 85 68 61 66 68 70 76 87 69 69
162 169 166 165 161 161 164 163 159 154 148 141 131 119 107 100 100 102 102 101 100 100 102 98 96 95 92 89 88 85 82 79 77 73 77 78 62 66 68 70 68 67 65
165 171 170 167 163 163 162 161 160 157 153 145 135 123 113 105 102 104 104 101 99 97 98 97 96 94 93 92 89 87 84 78 73 71 71 74 64 60 64 66 64 66 63
162 169 172 168 166 165 164 162 163 162 157 149 140 130 120 113 108 108 105 102 99 99 97 96 96 96 95 92 91 87 82 77 73 73 72 78 70 55 62 62 58 59 78
164 167 172 170 170 170 166 165 166 165 159 156 148 137 131 126 121 115 112 108 105 103 102 99 98 101 99 94 90 85 78 73 72 65 71 67 71 54 62 67 66 64 65
168 169 174 174 176 175 172 172 172 169 165 162 157 149 146 139 132 129 122 113 109 111 111 108 107 106 100 94 86 79 74 68 89 74 55 76 40 44 55 61 60 60 61
174 172 181 179 180 181 180 179 179 177 174 171 167 163 156 151 149 141 133 127 126 125 125 122 118 112 100 84 68 63 60 62 60 50 56 39 26 31 42 50 53 53 55
179 174 183 185 185 185 188 187 186 185 185 181 177 174 170 166 166 163 156 155 154 154 156 156 145 135 124 14 356 350 19 39 125 313 335 11 344 359 26 37 41 43 47
186 182 183 182 189 193 195 192 193 193 194 191 189 184 183 180 176 179 179 180 178 183 185 194 215 227 268 303 306 313 319 345 57 306 303 280 323 328 2 22 27 28 25
193 192 189 188 192 189 196 201 199 201 199 200 200 197 194 190 192 191 191 197 191 198 203 212 232 255 281 308 299 303 304 285 276 299 291 290 332 324 317 355 358 3 2
196 197 197 195 197 193 197 204 204 208 208 207 207 208 200 200 202 198 216 208 201 202 213 223 240 264 348 334 311 326 324 278 288 285 294 295 310 305 297 295 342 343 343
203 202 201 201 202 198 203 206 203 208 207 212 213 215 204 215 219 208 219 222 218 225 227 270 261 304 249 239 281 276 272 296 275 280 275 296 303 300 291 281 292 320 319
202 205 206 207 210 204 207 211 210 209 214 214 221 224 217 215 219 212 219 221 219 218 219 216 239 239 240 250 259 259 278 289 287 290 287 303 300 290 290 279 272 286 285
206 213 211 210 215 217 214 217 217 220 228 230 229 234 220 223 226 224 226 220 221 222 227 229 244 254 255 263 261 263 260 261 270 282 280 295 288 277 284 277 267 265 269
215 216 213 212 218 221 223 223 228 231 229 232 234 234 236 231 239 234 239 236 231 231 237 244 252 251 263 263 261 255 257 260 270 269 276 284 285 271 271 271 266 264 261
232 214 212 209 215 228 228 238 238 236 243 237 234 243 243 245 247 242 242 240 241 241 243 247 251 260 264 264 266 263 259 264 267 268 277 274 278 283 271 264 261 261 249
224 220 221 213 218 236 235 234 235 236 236 234 238 240 252 251 252 255 249 248 242 242 243 245 247 255 259 262 266 267 266 266 268 263 270 264 271 270 284 267 265 260 254
239 241 240 238 226 225 246 242 236 234 237 232 236 245 264 261 254 258 251 252 251 251 247 246 248 252 259 265 266 272 271 266 268 273 271 268 268 264 259 273 269 253 250
232 250 248 250 240 242 240 248 240 230 232 233 237 243 260 263 257 258 251 248 252 253 251 252 252 254 259 260 268 269 269 265 266 265 269 275 272 271 264 251 263 252 252
257 272 260 245 251 257 240 221 219 222 215 215 220 232 237 247 259 271 270 265 265 254 249 247 259 264 262 270 272 277 289 279 268 265 266 272 272 275 269 254 244 244 264
344 293 279 277 277 264 236 225 212 195 193 189 194 204 218 236 242 252 267 268 270 261 255 249 259 263 265 270 262 275 289 289 271 268 256 265 266 274 271 252 238 231 227
64 76 64 83 125 182 191 191 180 186 208 205 210 222 216 212 229 249 264 251 247 271 271 266 263 261 264 258 257 254 277 287 305 265 269 258 276 283 255 239 231 233 232
60 57 48 5 258 205 183 176 193 199 193 203 208 216 237 222 268 286 302 291 294 285 296 310 294 279 271 275 251 265 261 266 272 280 250 240 277 294 261 237 240 226 227
81 76 68 64 62 61 84 135 146 168 178 196 220 259 275 281 278 292 299 291 292 293 262 285 282 276 269 270 273 266 268 272 263 256 270 256 265 252 262 245 230 223 220
92 82 78 72 73 74 71 70 72 66 12 290 279 282 278 282 273 261 261 265 273 260 266 269 267 267 271 267 265 259 257 255 257 257 259 263 269 254 271 258 244 220 223
Wind_Speed_850mb
33 35 33 31 33 35 34 32 27 21 20 20 20 22 26 29 31 33 36 37 38 39 40 40 41 43 44 44 42 41 37 35 36 37 39 38 38 38 38 43 29 22 28
42 40 37 34 35 36 36 32 27 24 23 22 21 23 26 29 32 35 37 38 38 38 38 39 40 43 43 43 42 40 39 39 38 38 45 41 41 41 38 36 29 32 33
44 43 40 37 37 36 36 33 30 27 26 24 22 23 26 28 30 33 35 37 38 38 37 36 37 38 38 39 39 39 38 37 37 44 43 19 29 39 38 38 36 37 36
45 44 42 38 36 35 33 31 29 27 26 25 22 23 24 26 27 29 30 32 34 35 35 34 34 34 34 34 35 35 35 35 36 42 21 19 22 34 35 36 36 35 37
42 42 41 38 35 33 31 30 28 27 26 24 22 22 22 23 24 26 26 27 30 30 30 29 29 29 29 31 31 32 31 31 34 31 19 17 16 28 31 32 31 33 30
40 38 38 35 33 31 30 28 28 26 25 23 22 20 20 21 21 22 22 23 24 25 24 23 22 21 23 23 23 24 24 23 31 14 16 26 16 25 27 28 25 26 28
40 36 38 35 32 30 28 27 26 25 24 23 22 20 19 19 19 19 20 19 19 19 17 16 16 16 14 12 11 12 14 17 20 9 13 15 18 23 25 24 22 22 24
37 36 40 38 33 29 27 24 23 22 21 21 20 19 18 17 16 15 16 15 14 14 12 11 10 9 8 7 7 8 8 8 12 5 5 6 17 20 21 21 19 18 19
36 35 36 40 36 31 27 25 23 21 21 20 20 19 17 17 15 15 14 14 13 12 10 8 6 4 2 1 4 4 5 6 9 4 4 4 16 14 16 15 16 15 13
35 34 32 35 36 33 30 28 24 22 22 21 21 20 19 18 17 15 14 13 13 13 11 8 5 3 3 6 8 6 7 5 2 7 9 7 16 11 11 12 11 11 10
37 36 33 34 34 32 29 30 28 27 24 23 23 22 21 17 18 16 17 17 14 12 11 9 8 6 7 6 10 11 11 8 11 11 10 19 16 10 10 10 10 10 10
39 40 38 36 36 33 30 29 31 29 28 27 26 24 23 20 20 20 21 18 15 12 9 8 6 5 4 5 17 15 8 12 13 14 15 23 16 13 12 11 10 9 9
37 40 40 38 37 33 28 25 24 24 24 27 28 26 24 21 21 23 17 17 16 11 9 12 6 4 7 6 5 11 12 11 14 16 17 21 16 15 13 12 10 8 9
35 37 40 40 43 40 31 30 28 27 26 25 29 30 29 26 23 20 19 18 18 16 15 12 9 14 9 9 11 12 12 15 16 17 21 25 21 18 17 14 11 11 10
28 29 32 35 36 40 44 27 26 25 25 22 23 28 25 23 23 22 22 20 20 19 18 15 16 16 16 17 16 17 17 19 21 22 21 28 23 21 18 17 15 15 13
21 23 26 33 34 32 32 31 24 25 24 24 23 23 30 25 24 21 22 20 23 23 22 21 21 22 21 22 24 26 26 22 23 26 24 26 22 21 21 21 18 18 16
19 22 25 29 30 34 32 31 29 25 23 24 24 26 30 32 31 29 24 24 25 26 28 29 27 26 29 26 30 29 28 28 24 26 24 23 24 23 26 25 22 23 21
17 19 26 23 26 33 32 28 24 25 25 25 24 24 32 33 34 34 30 29 30 35 33 30 28 26 29 29 30 30 29 29 27 26 22 25 23 23 28 25 25 24 22
13 18 22 28 28 29 35 29 26 26 25 25 25 27 33 33 31 33 31 31 39 37 33 33 31 29 28 27 29 29 29 28 28 26 26 25 26 28 23 27 27 31 28
6 17 21 20 31 34 33 36 28 23 23 23 24 23 27 30 33 35 34 36 37 32 34 34 35 30 30 27 27 27 29 31 30 28 26 24 26 29 27 25 31 29 32
5 15 19 14 23 23 24 21 21 20 19 18 18 21 22 19 26 33 33 31 39 41 41 38 39 35 31 28 28 28 27 30 33 29 25 22 23 24 24 28 25 23 22
6 8 12 18 19 14 18 21 22 20 19 30 33 31 30 32 31 26 30 32 40 41 43 36 34 33 29 25 30 27 29 22 28 20 20 18 20 24 21 19 19 24 21
15 11 6 6 6 10 14 15 19 28 35 25 26 31 30 20 24 22 36 34 44 34 41 35 26 26 31 27 32 28 26 29 15 19 17 16 16 13 14 18 18 21 19
24 19 12 6 4 9 13 14 19 18 17 17 24 24 19 16 6 12 32 45 55 52 75 48 38 43 44 44 30 24 32 33 31 32 15 16 16 14 19 18 20 18 18
25 30 28 25 22 16 6 6 10 16 19 20 17 14 24 31 39 48 61 40 49 62 60 80 75 71 52 43 40 37 36 31 31 33 35 20 12 11 17 17 20 18 19
25 26 27 29 32 28 20 14 8 6 3 6 13 18 26 38 42 45 74 75 51 63 68 77 70 71 73 58 46 38 40 37 30 29 32 31 28 20 20 26 29 24 21
Wind_Direction_850mb
161 167 162 159 156 156 159 159 155 148 137 123 112 106 94 88 90 96 100 101 103 102 98 96 94 94 93 90 90 89 87 83 81 81 76 74 72 71 70 78 61 70 67
161 169 164 162 158 160 163 163 158 152 141 133 123 115 102 94 95 98 100 101 101 101 101 99 97 94 91 88 88 86 85 82 80 85 68 61 66 68 70 76 87 69 69
162 169 166 165 161 161 164 163 159 154 148 141 131 119 107 100 100 102 102 101 100 100 102 98 96 95 92 89 88 85 82 79 77 73 77 78 62 66 68 70 68 67 65
165 171 170 167 163 163 162 161 160 157 153 145 135 123 113 105 102 104 104 101 99 97 98 97 96 94 93 92 89 87 84 78 73 71 71 74 64 60 64 66 64 66 63
162 169 172 168 166 165 164 162 163 162 157 149 140 130 120 113 108 108 105 102 99 99 97 96 96 96 95 92 91 87 82 77 73 73 72 78 70 55 62 62 58 59 78
164 167 172 170 170 170 166 165 166 165 159 156 148 137 131 126 121 115 112 108 105 103 102 99 98 101 99 94 90 85 78 73 72 65 71 67 71 54 62 67 66 64 65
168 169 174 174 176 175 172 172 172 169 165 162 157 149 146 139 132 129 122 113 109 111 111 108 107 106 100 94 86 79 74 68 89 74 55 76 40 44 55 61 60 60 61
174 172 181 179 180 181 180 179 179 177 174 171 167 163 156 151 149 141 133 127 126 125 125 122 118 112 100 84 68 63 60 62 60 50 56 39 26 31 42 50 53 53 55
179 174 183 185 185 185 188 187 186 185 185 181 177 174 170 166 166 163 156 155 154 154 156 156 145 135 124 14 356 350 19 39 125 313 335 11 344 359 26 37 41 43 47
186 182 183 182 189 193 195 192 193 193 194 191 189 184 183 180 176 179 179 180 178 183 185 194 215 227 268 303 306 313 319 345 57 306 303 280 323 328 2 22 27 28 25
193 192 189 188 192 189 196 201 199 201 199 200 200 197 194 190 192 191 191 197 191 198 203 212 232 255 281 308 299 303 304 285 276 299 291 290 332 324 317 355 358 3 2
196 197 197 195 197 193 197 204 204 208 208 207 207 208 200 200 202 198 216 208 201 202 213 223 240 264 348 334 311 326 324 278 288 285 294 295 310 305 297 295 342 343 343
203 202 201 201 202 198 203 206 203 208 207 212 213 215 204 215 219 208 219 222 218 225 227 270 261 304 249 239 281 276 272 296 275 280 275 296 303 300 291 281 292 320 319
202 205 206 207 210 204 207 211 210 209 214 214 221 224 217 215 219 212 219 221 219 218 219 216 239 239 240 250 259 259 278 289 287 290 287 303 300 290 290 279 272 286 285
206 213 211 210 215 217 214 217 217 220 228 230 229 234 220 223 226 224 226 220 221 222 227 229 244 254 255 263 261 263 260 261 270 282 280 295 288 277 284 277 267 265 269
215 216 213 212 218 221 223 223 228 231 229 232 234 234 236 231 239 234 239 236 231 231 237 244 252 251 263 263 261 255 257 260 270 269 276 284 285 271 271 271 266 264 261
232 214 212 209 215 228 228 238 238 236 243 237 234 243 243 245 247 242 242 240 241 241 243 247 251 260 264 264 266 263 259 264 267 268 277 274 278 283 271 264 261 261 249
224 220 221 213 218 236 235 234 235 236 236 234 238 240 252 251 252 255 249 248 242 242 243 245 247 255 259 262 266 267 266 266 268 263 270 264 271 270 284 267 265 260 254
239 241 240 238 226 225 246 242 236 234 237 232 236 245 264 261 254 258 251 252 251 251 247 246 248 252 259 265 266 272 271 266 268 273 271 268 268 264 259 273 269 253 250
232 250 248 250 240 242 240 248 240 230 232 233 237 243 260 263 257 258 251 248 252 253 251 252 252 254 259 260 268 269 269 265 266 265 269 275 272 271 264 251 263 252 252
257 272 260 245 251 257 240 221 219 222 215 215 220 232 237 247 259 271 270 265 265 254 249 247 259 264 262 270 272 277 289 279 268 265 266 272 272 275 269 254 244 244 264
344 293 279 277 277 264 236 225 212 195 193 189 194 204 218 236 242 252 267 268 270 261 255 249 259 263 265 270 262 275 289 289 271 268 256 265 266 274 271 252 238 231 227
64 76 64 83 125 182 191 191 180 186 208 205 210 222 216 212 229 249 264 251 247 271 271 266 263 261 264 258 257 254 277 287 305 265 269 258 276 283 255 239 231 233 232
60 57 48 5 258 205 183 176 193 199 193 203 208 216 237 222 268 286 302 291 294 285 296 310 294 279 271 275 251 265 261 266 272 280 250 240 277 294 261 237 240 226 227
81 76 68 64 62 61 84 135 146 168 178 196 220 259 275 281 278 292 299 291 292 293 262 285 282 276 269 270 273 266 268 272 263 256 270 256 265 252 262 245 230 223 220
92 82 78 72 73 74 71 70 72 66 12 290 279 282 278 282 273 261 261 265 273 260 266 269 267 267 271 267 265 259 257 255 257 257 259 263 269 254 271 258 244 220 223